User: anonymous   Login
Location: Albany
(35.0000°S, 118.0000°E)
Time: 20:23:09
(UTC-05:00)
Language:

Cosmos 1346 Rocket - Orbit

View from above orbital plane
View from above orbital plane
View from above satellite
View from above satellite

Ground track
Ground track

The orbit data is extracted from the following two-line orbital elements,

1 13121U 82027B   15026.56270415  .00002141  00000-0  14316-3 0  5993
2 13121 081.1660 040.5423 0028768 167.0528 193.1441 15.06221921785507
Epoch (UTC): 26 January 2015 13:30:17
Eccentricity: 0.0028768
inclination: 81.1660°
perigee height: 528 km
apogee height: 567 km
right ascension of ascending node: 40.5423°
argument of perigee: 167.0528°
revolutions per day: 15.06221921
mean anomaly at epoch: 193.1441°
orbit number at epoch: 78550

The dashed part of the orbit path shows where the satellite is in the earth's shadow,  

DLR